STARLINK-3916 (52492 NORAD) Tracking and Keplerian Element Data

This shows tracking and keplerian element data for the satellite.

Feedback or suggestion? Click here.




ElementValue
Catalog52492
NameSTARLINK-3916
Epoch Orbit130
Epoch Day167.08334491
Epoch Year2022
RAAN64.9688
Inclination53.2181
Eccentricity0.0001682
Argument of Perigee36.7789
Mean Anonmoly117.8391
Mean Motion15.7321673
Decay Rate0.00053241
L11 52492U 22049AT 22167.08334491 .00053241 00000+0 38108-3 0 9996
L22 52492 53.2181 64.9688 0001682 36.7789 117.8391 15.73216730 1301

Live tracking and technical data element details for STARLINK-3916 (NORAD 52492). STARLINK-3916 can be tracked NOW for your location showing map with azimuth and elevation plus other details from your city location.

Track the satellite on the map from your city or location and see movement details for azimuth, elevation, latitude, longitude, range, height, and movement on the map or in text.







IsCatalogInMostPopularTable: catalog: 52492, numindb: 3
Update: records affected: 1



GetName: 52492 STARLINK-3916

Hit Count: updated at: Sat, 25 Jun 2022 05:07:40 GMT